AUA2AY LOWW-EDDH

Flight info

Callsign AUA2AY
Flight time N/A
Altitude 38000
Route LANUX DCT LALUK DCT MILGU DCT SOGMA M748 BUMIL/N0354F240 M748 RARUP RARUP6A/05
Aircraft A20N/M-SDE2E3FGHIRWXY/LB1

Departure

Time N/A
Airport Vienna International Airport (LOWW)

Arrival

Time 2026-04-30 17:48
Airport Hamburg Helmut Schmidt Airport (EDDH)
Time Latitude Longitude Altitude Speed Heading
2026-04-30 17:39 53.35101 9.64013 7024 ft 258 kts 226°
2026-04-30 17:41 53.42527 9.58105 4503 ft 224 kts 40°
2026-04-30 17:42 53.44659 9.61977 4313 ft 225 kts 52°
2026-04-30 17:42 53.47638 9.67928 4008 ft 212 kts 52°
2026-04-30 17:43 53.49447 9.71532 3775 ft 194 kts 52°
2026-04-30 17:44 53.51939 9.76403 3132 ft 173 kts 51°
2026-04-30 17:44 53.54199 9.80940 2446 ft 167 kts 52°
2026-04-30 17:46 53.57760 9.88133 1361 ft 137 kts 53°
2026-04-30 17:47 53.60140 9.92942 639 ft 139 kts 51°
2026-04-30 17:48 53.62552 9.97843 41 ft 100 kts 50°
2026-04-30 17:48 53.63092 9.99134 44 ft 17 kts 94°
2026-04-30 17:49 53.63086 9.99341 44 ft 0 kts 81°
2026-04-30 17:50 53.63088 9.99356 44 ft 3 kts 81°
2026-04-30 17:51 53.63088 9.99362 44 ft 0 kts 78°
2026-04-30 17:53 53.63211 9.99649 44 ft 0 kts 51°
2026-04-30 17:55 53.63221 9.99760 42 ft 8 kts 135°
2026-04-30 17:56 53.62935 10.00011 45 ft 8 kts 153°
2026-04-30 17:57 53.62956 10.00208 45 ft 7 kts 115°
2026-04-30 17:58 53.62948 10.00235 43 ft 2 kts 117°
2026-04-30 17:59 53.62938 10.00260 45 ft 0 kts 126°